When you browse on this site, cookies collect data to enhance your experience and personalize the content and advertising you see.
Visit our Privacy Policy to learn more. By continuing to use the site, you agree to this use of cookies and data.
  • In Switzerland
  • List of Countries
  • For 7 days
  • Water Temperature
  • Satellite Maps
  • Weather Map
  • Weather Widgets
  • user-avatar
    Login

    Hourly Weather Kaski

    Today, 22 July, Monday

    Time Temperature Precipitation Wind Pressure Humidity
    00:00 +18°C° 0 mm 2 mps 751 mmHg 78%
    01:00 +18°C° 0 mm 2 mps 752 mmHg 80%
    02:00 +19°C° 0 mm 1 mps 752 mmHg 83%
    03:00 +18°C° 0 mm 1 mps 752 mmHg 85%
    04:00 +18°C° 0 mm 1 mps 752 mmHg 88%
    05:00 +19°C° 0 mm 1 mps 752 mmHg 83%
    06:00 +20°C° 0 mm 1 mps 752 mmHg 77%
    07:00 +22°C° 0 mm 1 mps 752 mmHg 72%
    08:00 +23°C° 0.2 mm 2 mps 752 mmHg 67%
    09:00 +24°C° 0.2 mm 3 mps 752 mmHg 62%
    10:00 +26°C° 0.2 mm 3 mps 752 mmHg 56%
    11:00 +26°C° 0.1 mm 4 mps 752 mmHg 54%
    12:00 +26°C° 0.1 mm 4 mps 752 mmHg 52%
    13:00 +27°C° 0 mm 4 mps 752 mmHg 46%
    14:00 +27°C° 0 mm 4 mps 752 mmHg 48%
    15:00 +26°C° 0 mm 4 mps 751 mmHg 50%
    16:00 +26°C° 0 mm 4 mps 751 mmHg 52%
    17:00 +25°C° 0 mm 3 mps 751 mmHg 57%
    18:00 +24°C° 0 mm 3 mps 751 mmHg 62%
    19:00 +23°C° 0 mm 2 mps 751 mmHg 67%
    20:00 +21°C° 0 mm 2 mps 751 mmHg 68%
    21:00 +21°C° 0 mm 2 mps 751 mmHg 69%
    22:00 +20°C° 0 mm 2 mps 752 mmHg 71%
    23:00 +19°C° 0.6 mm 2 mps 751 mmHg 78%

    Tomorrow, 23 July, Tuesday

    Time Temperature Precipitation Wind Pressure Humidity
    00:00 +18°C° 0.6 mm 2 mps 751 mmHg 86%
    01:00 +18°C° 0.6 mm 3 mps 751 mmHg 94%
    02:00 +17°C° 0.2 mm 3 mps 751 mmHg 93%
    03:00 +17°C° 0.2 mm 3 mps 751 mmHg 92%
    04:00 +17°C° 0.2 mm 3 mps 751 mmHg 91%
    05:00 +17°C° 0.2 mm 3 mps 751 mmHg 92%
    06:00 +17°C° 0.2 mm 2 mps 751 mmHg 93%
    07:00 +17°C° 0.2 mm 2 mps 750 mmHg 93%
    08:00 +17°C° 0.1 mm 2 mps 751 mmHg 93%
    09:00 +17°C° 0.1 mm 2 mps 751 mmHg 93%
    10:00 +18°C° 0.1 mm 2 mps 751 mmHg 93%
    11:00 +18°C° 0.1 mm 3 mps 751 mmHg 92%
    12:00 +19°C° 0.1 mm 3 mps 750 mmHg 91%
    13:00 +19°C° 0.1 mm 3 mps 750 mmHg 90%
    14:00 +20°C° 0.1 mm 3 mps 750 mmHg 86%
    15:00 +21°C° 0.1 mm 3 mps 750 mmHg 82%
    16:00 +22°C° 0.1 mm 3 mps 750 mmHg 79%
    17:00 +23°C° 0.1 mm 2 mps 750 mmHg 82%
    18:00 +21°C° 0.1 mm 2 mps 750 mmHg 85%
    19:00 +22°C° 0.1 mm 1 mps 749 mmHg 88%
    20:00 +21°C° 0 mm 1 mps 750 mmHg 89%
    21:00 +19°C° 0 mm 0 mps 750 mmHg 90%
    22:00 +19°C° 0 mm 0 mps 750 mmHg 90%
    23:00 +18°C° 0 mm 0 mps 750 mmHg 91%

    Day after tomorrow, 24 July, Wednesday

    Time Temperature Precipitation Wind Pressure Humidity
    00:00 +20°C° 0 mm 1 mps 750 mmHg 92%
    01:00 +19°C° 0 mm 1 mps 750 mmHg 93%
    02:00 +19°C° 0 mm 1 mps 750 mmHg 94%
    03:00 +17°C° 0 mm 2 mps 749 mmHg 95%
    04:00 +17°C° 0 mm 2 mps 749 mmHg 95%
    05:00 +18°C° 0 mm 2 mps 749 mmHg 92%
    06:00 +19°C° 0 mm 2 mps 749 mmHg 88%
    07:00 +20°C° 0 mm 2 mps 749 mmHg 84%
    08:00 +23°C° 0 mm 2 mps 750 mmHg 77%
    09:00 +24°C° 0 mm 2 mps 750 mmHg 70%
    10:00 +25°C° 0 mm 2 mps 750 mmHg 63%
    11:00 +26°C° 0.1 mm 2 mps 750 mmHg 60%
    12:00 +27°C° 0.1 mm 2 mps 749 mmHg 58%
    13:00 +28°C° 0.1 mm 3 mps 749 mmHg 56%
    14:00 +27°C° 0.1 mm 2 mps 749 mmHg 57%
    15:00 +27°C° 0.1 mm 2 mps 749 mmHg 58%
    16:00 +27°C° 0.1 mm 2 mps 749 mmHg 59%
    17:00 +27°C° 0 mm 2 mps 749 mmHg 63%
    18:00 +26°C° 0 mm 1 mps 749 mmHg 68%
    19:00 +25°C° 0 mm 1 mps 749 mmHg 72%
    20:00 +24°C° 0 mm 1 mps 749 mmHg 75%
    21:00 +23°C° 0 mm 1 mps 749 mmHg 78%
    22:00 +22°C° 0 mm 1 mps 750 mmHg 81%
    23:00 +22°C° 0 mm 1 mps 750 mmHg 82%

    25 July, Thursday

    Time Temperature Precipitation Wind Pressure Humidity
    00:00 +21°C° 0 mm 1 mps 750 mmHg 84%
    01:00 +21°C° 0 mm 1 mps 750 mmHg 85%
    02:00 +21°C° 0 mm 1 mps 750 mmHg 87%
    03:00 +20°C° 0 mm 1 mps 750 mmHg 89%
    04:00 +20°C° 0 mm 1 mps 750 mmHg 90%
    05:00 +21°C° 0 mm 1 mps 750 mmHg 86%
    06:00 +23°C° 0 mm 1 mps 750 mmHg 81%
    07:00 +24°C° 0 mm 1 mps 750 mmHg 76%
    08:00 +25°C° 0.1 mm 2 mps 750 mmHg 71%
    09:00 +27°C° 0.1 mm 2 mps 750 mmHg 66%
    10:00 +28°C° 0.1 mm 2 mps 750 mmHg 61%
    11:00 +29°C° 0.1 mm 2 mps 749 mmHg 57%
    12:00 +29°C° 0.1 mm 3 mps 749 mmHg 54%
    13:00 +30°C° 0.1 mm 3 mps 749 mmHg 51%
    14:00 +30°C° 0.1 mm 3 mps 749 mmHg 52%
    15:00 +29°C° 0.1 mm 4 mps 748 mmHg 53%
    16:00 +29°C° 0.1 mm 4 mps 748 mmHg 54%
    17:00 +28°C° 0 mm 4 mps 748 mmHg 60%
    18:00 +27°C° 0 mm 3 mps 748 mmHg 65%
    19:00 +25°C° 0 mm 3 mps 748 mmHg 70%
    20:00 +24°C° 0 mm 3 mps 748 mmHg 73%
    21:00 +22°C° 0 mm 3 mps 749 mmHg 75%
    22:00 +21°C° 0 mm 3 mps 749 mmHg 77%
    23:00 +20°C° 0 mm 3 mps 749 mmHg 80%

    26 July, Friday

    Time Temperature Precipitation Wind Pressure Humidity
    00:00 +19°C° 0 mm 3 mps 749 mmHg 83%
    01:00 +18°C° 0 mm 3 mps 749 mmHg 85%
    02:00 +18°C° 0 mm 3 mps 749 mmHg 86%
    03:00 +17°C° 0 mm 3 mps 748 mmHg 87%
    04:00 +16°C° 0 mm 3 mps 748 mmHg 87%
    05:00 +17°C° 0 mm 3 mps 748 mmHg 84%
    06:00 +18°C° 0 mm 3 mps 748 mmHg 80%
    07:00 +19°C° 0 mm 3 mps 748 mmHg 77%
    08:00 +21°C° 0 mm 4 mps 748 mmHg 69%
    09:00 +22°C° 0 mm 4 mps 748 mmHg 61%
    10:00 +25°C° 0 mm 4 mps 749 mmHg 54%
    11:00 +26°C° 0 mm 4 mps 748 mmHg 52%
    12:00 +26°C° 0 mm 5 mps 748 mmHg 50%
    13:00 +27°C° 0 mm 5 mps 748 mmHg 49%
    14:00 +27°C° 0 mm 5 mps 747 mmHg 50%
    15:00 +27°C° 0 mm 5 mps 747 mmHg 51%
    16:00 +27°C° 0 mm 5 mps 747 mmHg 52%
    17:00 +26°C° 0.1 mm 4 mps 747 mmHg 58%
    18:00 +23°C° 0.1 mm 4 mps 747 mmHg 65%
    19:00 +22°C° 0.1 mm 3 mps 747 mmHg 71%
    20:00 +21°C° 0 mm 3 mps 747 mmHg 76%
    21:00 +20°C° 0 mm 3 mps 747 mmHg 80%
    22:00 +19°C° 0 mm 2 mps 747 mmHg 84%
    23:00 +18°C° 0 mm 2 mps 747 mmHg 85%

    27 July, Saturday

    Time Temperature Precipitation Wind Pressure Humidity
    00:00 +18°C° 0 mm 2 mps 747 mmHg 87%
    01:00 +18°C° 0 mm 2 mps 747 mmHg 88%
    02:00 +17°C° 0 mm 2 mps 747 mmHg 90%
    03:00 +17°C° 0 mm 2 mps 747 mmHg 93%
    04:00 +16°C° 0 mm 2 mps 747 mmHg 95%
    05:00 +18°C° 0 mm 2 mps 747 mmHg 90%
    06:00 +19°C° 0 mm 3 mps 747 mmHg 84%
    07:00 +20°C° 0 mm 3 mps 748 mmHg 79%
    08:00 +22°C° 0 mm 3 mps 748 mmHg 72%
    09:00 +23°C° 0 mm 4 mps 748 mmHg 65%
    10:00 +26°C° 0 mm 4 mps 748 mmHg 58%
    11:00 +27°C° 0.1 mm 4 mps 748 mmHg 57%
    12:00 +27°C° 0.1 mm 5 mps 747 mmHg 55%
    13:00 +28°C° 0.1 mm 5 mps 747 mmHg 54%
    14:00 +28°C° 0.3 mm 4 mps 747 mmHg 55%
    15:00 +28°C° 0.3 mm 4 mps 747 mmHg 56%
    16:00 +27°C° 0.3 mm 4 mps 747 mmHg 58%
    17:00 +27°C° 0.1 mm 3 mps 747 mmHg 61%
    18:00 +26°C° 0.1 mm 2 mps 747 mmHg 65%
    19:00 +25°C° 0.1 mm 1 mps 747 mmHg 68%
    20:00 +24°C° 0 mm 1 mps 747 mmHg 71%
    21:00 +23°C° 0 mm 1 mps 747 mmHg 74%
    22:00 +22°C° 0 mm 1 mps 748 mmHg 77%
    23:00 +21°C° 0 mm 2 mps 748 mmHg 79%
    Show more